www.pogodaiklimat.ru

Погода и климат >> Архив погоды >> Финляндия >> Остров Руссаро


ПОГОДА на Острове Руссаро

  • Прогноз погоды на Острове Руссаро
  • Монитор погоды на Острове Руссаро

АРХИВ ПОГОДЫ на Острове Руссаро

Время (UTC), дата Ветер
(напр.,м/с)
 
Видим.   Явления Облачность Т
(С)
Тd
(С)
f
(%)
Тe
(С)
Тes
(С)
Комфортность P
(гПа)
Po
(гПа)
Тmin
(С)
Tmax
(С)
R
(мм)
R24
(мм)
S
(см)
19 9.09 В 9 н/о н/о +15.5 +15.1 97 +13 +13 1020.7 1019.5
20 9.09 В 10 н/о н/о +15.7 +15.2 97 +13 +13 1020.3 1019.2
21 9.09 В 11-11
{12}
н/о н/о +15.6 +15.3 98 +13 +13 1019.8 1018.7
22 9.09 В 10 н/о н/о +15.5 +15.3 99 +13 +13 1019.8 1018.7
23 9.09 В 11 н/о н/о +16.3 +16.0 98 +14 +14 1020.3 1019.2
00 10.09 В 11-12
{13}
н/о н/о +16.0 +15.8 99 +14 +14 1019.1 1018.0 0.3
01 10.09 В 12-13
{13}
н/о н/о +16.1 +15.8 98 +14 +14 1018.9 1017.8
02 10.09 В 12 н/о н/о +16.0 +15.7 98 +14 +14 1018.7 1017.6
03 10.09 В 12-13
{14}
н/о н/о +15.7 +15.5 99 +13 +13 1018.6 1017.5
04 10.09 В 12 н/о н/о +15.7 +15.5 99 +13 +13 1018.5 1017.4
05 10.09 В 12-12
{13}
н/о н/о +15.7 +15.6 99 +13 +13 1018.4 1017.3
06 10.09 В 11-12
{13}
н/о н/о +15.9 +15.7 99 +14 +14 1018.3 1017.2 +15.2 +16.6
07 10.09 В 11 н/о н/о +16.7 +15.7 94 +15 +15 1018.2 1017.1
08 10.09 В 12 н/о н/о +17.1 +15.5 90 +15 +15 1018.2 1017.1
09 10.09 В 11-12
{13}
н/о н/о +17.7 +15.7 88 +16 +16 1018.1 1017.0
10 10.09 В 11-12
{13}
н/о н/о +17.8 +15.6 87 +16 +16 1018.0 1016.9
11 10.09 В 12 н/о н/о +17.6 +15.4 87 +16 +16 1017.6 1016.5
12 10.09 В 11-12
{12}
н/о н/о +18.9 +16.0 83 +19 +19 1017.2 1016.1
13 10.09 В 11 н/о н/о +19.0 +16.0 83 +19 +19 1016.8 1015.7
14 10.09 В 9-11
{12}
н/о н/о +19.4 +15.8 80 +20 +20 1016.6 1015.5
15 10.09 ЮВ 9 н/о н/о +19.0 +15.6 81 +19 +19 1016.6 1015.5
16 10.09 Ю 10 н/о н/о +19.8 +13.9 69 +21 +21 комфорт 1016.9 1015.8
17 10.09 Ю 7 н/о н/о +19.2 +13.1 68 +20 +20 1016.8 1015.8
18 10.09 Ю 9-10
{11}
н/о н/о +18.9 +13.5 71 +19 +19 1016.9 1015.8 +15.9 +20.7
19 10.09 Ю 9 н/о н/о +19.4 +12.6 65 +20 +20 1016.8 1015.7
20 10.09 ЮВ 9-11
{13}
н/о н/о +18.6 +13.7 73 +18 +18 1016.3 1015.2
21 10.09 ЮВ 11-12
{12}
н/о н/о +18.2 +13.3 73 +17 +17 1016.0 1014.9
22 10.09 ЮВ 11-13
{14}
н/о н/о +17.9 +13.4 75 +17 +17 1015.8 1014.7
23 10.09 ЮВ 12 н/о н/о +17.5 +13.5 77 +16 +16 1015.3 1014.3
00 11.09 ЮВ 14-16
{16}
н/о н/о +17.3 +13.2 77 +15 +15 1015.1 1014.0
01 11.09 Ю 13 н/о н/о +16.9 +13.4 80 +15 +15 1014.9 1013.8
02 11.09 Ю 13 н/о н/о +16.5 +13.1 80 +14 +14 1014.3 1013.2
03 11.09 ЮВ 14-16
{18}
н/о н/о +16.6 +13.0 79 +14 +14 1013.7 1012.7
04 11.09 Ю 14 н/о н/о +16.1 +13.3 83 +14 +14 1013.4 1012.3
05 11.09 Ю 19 н/о н/о +15.6 +13.3 86 +12 +12 1012.8 1011.7
06 11.09 Ю 18-21
{22}
н/о н/о +15.0 +13.4 90 +12 +12 1012.5 1011.4 +15.0 +19.5 0.7
07 11.09 Ю 17-20
{21}
н/о н/о +14.7 +13.6 93 +11 +11 1012.0 1010.9 0.5
08 11.09 Ю 16-19
{20}
н/о н/о +15.4 +13.5 88 +12 +12 1011.9 1010.8
09 11.09 Ю 16-19
{20}
н/о н/о +16.0 +13.6 86 +13 +13 1011.6 1010.5
10 11.09 Ю 16 н/о н/о +16.2 +13.8 86 +14 +14 1011.4 1010.3
11 11.09 Ю 15 н/о н/о +15.7 +14.6 93 +13 +13 1011.3 1010.2
12 11.09 ЮЗ 16-20
{20}
н/о н/о +16.1 +14.5 90 +13 +13 1011.5 1010.4
13 11.09 ЮЗ 15 н/о н/о +17.0 +14.6 86 +15 +15 1011.6 1010.6
14 11.09 ЮЗ 13 н/о н/о +16.7 +14.4 86 +15 +15 1012.0 1011.0
15 11.09 ЮЗ 12-15
{17}
н/о н/о +16.6 +14.5 87 +15 +15 1012.3 1011.2
16 11.09 ЮЗ 12 н/о н/о +16.5 +15.0 91 +14 +14 1012.4 1011.3
17 11.09 ЮЗ 14-16
{16}
н/о н/о +16.4 +14.9 91 +14 +14 1012.6 1011.5
18 11.09 ЮЗ 13-15
{17}
н/о н/о +16.3 +15.0 92 +14 +14 1013.2 1012.1 +14.5 +17.1
19 11.09 ЮЗ 14-16
{18}
н/о н/о +16.1 +13.5 85 +14 +14 1013.6 1012.5
20 11.09 ЮЗ 13-16
{16}
н/о н/о +16.0 +13.6 86 +14 +14 1014.1 1013.0
21 11.09 ЮЗ 13-15
{17}
н/о н/о +16.0 +13.5 85 +14 +14 1014.4 1013.3
22 11.09 ЮЗ 14 н/о н/о +15.9 +13.8 87 +13 +13 1014.4 1013.3
23 11.09 ЮЗ 13-15
{15}
н/о н/о +15.8 +13.7 87 +13 +13 1014.3 1013.2
00 12.09 ЮЗ 13-15
{16}
н/о н/о +15.8 +13.4 86 +13 +13 1014.1 1013.0
01 12.09 ЮЗ 13-14
{15}
н/о н/о +15.8 +13.3 85 +13 +13 1013.9 1012.8
02 12.09 ЮЗ 14-16
{16}
н/о н/о +16.2 +13.5 84 +14 +14 1013.2 1012.1
03 12.09 ЮЗ 14-17
{18}
н/о н/о +16.4 +13.4 82 +14 +14 1012.5 1011.4
04 12.09 ЮЗ 16 н/о н/о +15.6 +13.4 87 +13 +13 1012.1 1011.0
05 12.09 ЮЗ 15-19
{19}
н/о н/о +15.6 +13.2 86 +13 +13 1011.9 1010.8
06 12.09 ЮЗ 14-17
{18}
н/о н/о +15.4 +13.8 90 +13 +13 1011.5 1010.4 +15.0 +16.5 0.4
07 12.09 ЮЗ 15 н/о н/о +14.3 +13.8 97 +11 +11 1011.2 1010.1
08 12.09 ЮЗ 13 н/о н/о +15.2 +14.2 94 +12 +12 1011.2 1010.2
09 12.09 З 11-13
{15}
н/о н/о +16.4 +13.5 83 +14 +14 1011.8 1010.7
10 12.09 ЮЗ 13 н/о н/о +16.8 +13.3 80 +15 +15 1012.0 1010.9
11 12.09 З 13 н/о н/о +16.8 +12.6 76 +15 +15 1012.4 1011.4
12 12.09 З 13-16
{16}
н/о н/о +16.6 +12.5 77 +14 +14 1012.9 1011.8
13 12.09 ЮЗ 12 н/о н/о +16.6 +12.9 79 +15 +15 1013.0 1011.9
14 12.09 ЮЗ 12-14
{15}
н/о н/о +16.3 +12.7 79 +14 +14 1013.1 1012.0
15 12.09 З 14-17
{17}
н/о н/о +15.8 +12.6 81 +13 +13 1013.5 1012.4
16 12.09 З 15 н/о н/о +15.6 +12.6 82 +13 +13 1013.5 1012.4
17 12.09 ЮЗ 11-14
{15}
н/о н/о +15.3 +12.9 86 +13 +13 1013.5 1012.4
18 12.09 ЮЗ 11 н/о н/о +15.3 +12.9 86 +13 +13 1013.4 1012.3 +14.3 +17.0
19 12.09 ЮЗ 12 н/о н/о +15.3 +13.0 86 +13 +13 1013.3 1012.2
20 12.09 ЮЗ 12 н/о н/о +15.2 +13.0 87 +13 +13 1013.2 1012.1
21 12.09 З 13-15
{15}
н/о н/о +15.2 +12.8 86 +12 +12 1012.8 1011.7
22 12.09 З 13 н/о н/о +15.3 +12.5 83 +13 +13 1012.7 1011.6
23 12.09 З 13 н/о н/о +15.2 +11.9 81 +12 +12 1012.3 1011.2
00 13.09 З 13-16
{16}
н/о н/о +15.3 +11.9 80 +13 +13 1011.9 1010.8
01 13.09 З 12 н/о н/о +15.0 +11.4 79 +12 +12 1011.7 1010.6
02 13.09 З 12-14
{16}
н/о н/о +15.0 +11.6 80 +12 +12 1011.2 1010.1
03 13.09 З 12-14
{15}
н/о н/о +14.7 +11.6 82 +12 +12 1010.7 1009.6
04 13.09 З 12 н/о н/о +14.5 +11.8 84 +12 +12 1010.4 1009.3
05 13.09 З 11 н/о н/о +14.6 +11.7 83 +12 +12 1010.2 1009.1
06 13.09 З 11-13
{14}
н/о н/о +14.6 +11.7 83 +12 +12 1010.0 1008.9 +14.5 +15.4
07 13.09 З 12-14
{14}
н/о н/о +15.3 +11.9 80 +13 +13 1009.8 1008.7
08 13.09 З 12-13
{14}
н/о н/о +16.0 +12.2 78 +14 +14 1009.6 1008.5
09 13.09 З 12-14
{14}
н/о н/о +16.8 +12.4 75 +15 +15 1009.6 1008.5
10 13.09 З 12-14
{14}
н/о н/о +16.5 +11.9 74 +14 +14 1009.2 1008.1
11 13.09 С 5 н/о н/о +13.0 +9.3 78 +11 +11 1009.9 1008.8
12 13.09 В 1-2
{7}
н/о н/о +12.1 +10.3 89 +12 +12 1009.9 1008.8 0.2
13 13.09 СЗ 5 н/о н/о +14.4 +10.7 78 +13 +13 1010.1 1009.0
14 13.09 З 6 н/о н/о +14.0 +11.0 82 +12 +12 1010.4 1009.3
15 13.09 СЗ 9-12
{12}
н/о н/о +13.9 +9.1 73 +11 +11 1011.2 1010.1
16 13.09 СЗ 10 н/о н/о +14.0 +8.0 67 +11 +11 1011.8 1010.7
17 13.09 СЗ 11 н/о н/о +14.0 +7.2 64 +11 +11 1012.6 1011.5
18 13.09 СЗ 11-14
{16}
н/о н/о +13.7 +7.6 67 +11 +11 1013.2 1012.1 +12.0 +17.2
19 13.09 СЗ 12-14
{15}
н/о н/о +13.5 +7.7 68 +10 +10 1013.7 1012.6
20 13.09 З 14-16
{16}
н/о н/о +13.6 +8.8 73 +10 +10 1013.9 1012.8
21 13.09 З 14-16
{17}
н/о н/о +13.6 +10.4 81 +10 +10 1014.2 1013.1
22 13.09 З 16 н/о н/о +13.6 +7.0 64 +10 +10 1014.4 1013.3
23 13.09 СЗ 11 н/о н/о +13.3 +7.2 67 +10 +10 1014.6 1013.5
00 14.09 СЗ 10-12
{15}
н/о н/о +13.4 +6.9 65 +10 +10 1015.1 1014.0
01 14.09 СЗ 8 н/о н/о +13.2 +7.3 67 +11 +11 1015.3 1014.2
02 14.09 СЗ 9 н/о н/о +13.1 +7.2 67 +10 +10 1015.4 1014.3
03 14.09 СЗ 12-14
{14}
н/о н/о +13.0 +7.4 69 +10 +10 1015.6 1014.5
04 14.09 СЗ 12 н/о н/о +12.8 +7.5 70 +9 +9 1015.8 1014.7
05 14.09 СЗ 11-12
{14}
н/о н/о +12.6 +6.5 66 +9 +9 1016.3 1015.2
06 14.09 СЗ 12-14
{14}
н/о н/о +13.6 +7.1 65 +10 +10 1016.5 1015.4 +12.6 +14.1
07 14.09 СЗ 10-12
{15}
н/о н/о +14.0 +6.4 60 +11 +11 1016.8 1015.7
08 14.09 СЗ 11-13
{14}
н/о н/о +14.8 +7.2 60 +12 +12 1017.0 1015.9
09 14.09 З 12-14
{14}
н/о н/о +13.5 +6.7 63 +10 +10 1017.5 1016.4
10 14.09 СЗ 11 н/о н/о +11.9 +8.7 81 +8 +8 1017.5 1016.4
11 14.09 СЗ 14 н/о н/о +14.3 +7.1 62 +11 +11 1017.3 1016.2
12 14.09 СЗ 14-16
{18}
н/о н/о +14.7 +5.0 52 +12 +12 1017.6 1016.5
13 14.09 СЗ 13-18
{18}
н/о н/о +14.1 +5.9 58 +11 +11 1017.8 1016.7
14 14.09 З 15 н/о н/о +14.4 +5.3 54 +11 +11 1017.7 1016.6
15 14.09 СЗ 14-17
{18}
н/о н/о +13.3 +5.3 58 +10 +10 1018.0 1016.8
16 14.09 СЗ 13 н/о н/о +12.9 +5.2 59 +9 +9 1017.7 1016.6
17 14.09 СЗ 9-14
{15}
н/о н/о +11.3 +6.7 73 +8 +8 1017.5 1016.4 0.2
18 14.09 З 10-12
{15}
н/о н/о +12.1 +6.5 69 +9 +9 1017.6 1016.5 +11.2 +15.7
19 14.09 З 4 н/о н/о +11.6 +7.4 75 +9 +9 1016.9 1015.8
20 14.09 З 8-9
{10}
н/о н/о +12.4 +8.2 76 +9 +9 1016.1 1015.0
21 14.09 З 6-7
{10}
н/о н/о +12.0 +8.3 78 +9 +9 1015.4 1014.3
22 14.09 З 4 н/о н/о +11.6 +8.7 82 +9 +9 1014.6 1013.5
23 14.09 ЮЗ 5 н/о н/о +12.2 +9.8 85 +10 +10 1013.2 1012.1
00 15.09 ЮЗ 7-12
{12}
н/о н/о +13.4 +9.3 76 +11 +11 1011.6 1010.5
01 15.09 ЮЗ 8-10
{14}
н/о н/о +11.4 +9.7 89 +8 +8 1010.7 1009.5 0.4
02 15.09 З 9 н/о н/о +11.3 +10.6 95 +7 +7 1008.8 1007.7
03 15.09 З 12-15
{15}
н/о н/о +11.1 +9.5 90 +7 +7 1006.5 1005.4 1
04 15.09 ЮЗ 13-17
{18}
н/о н/о +11.5 +10.2 92 +7 +7 1004.3 1003.2 2
05 15.09 ЮЗ 15-20
{20}
н/о н/о +11.3 +10.4 94 +6 +6 1002.1 1001.0 3
06 15.09 ЮЗ 16-19
{21}
н/о н/о +11.8 +11.1 95 +7 +7 999.4 998.3 +10.8 +13.4 2
07 15.09 З 18-20
{23}
н/о н/о +12.2 +11.5 95 +7 +7 997.9 996.8 2
08 15.09 З 17 н/о н/о +12.0 +11.7 98 +7 +7 996.4 995.3
09 15.09 З 16-19
{19}
н/о н/о +12.4 +11.8 96 +8 +8 994.5 993.4 1
10 15.09 З 17 н/о н/о +12.5 +12.0 97 +8 +8 993.1 992.1
11 15.09 З 13 н/о н/о +11.7 +11.1 96 +7 +7 991.9 990.8
12 15.09 З 14-17
{22}
н/о н/о +12.5 +11.0 91 +8 +8 991.0 989.9 2
13 15.09 З 14-18
{18}
н/о н/о +13.1 +9.1 77 +9 +9 991.7 990.6
14 15.09 З 14-15
{21}
н/о н/о +10.7 +9.2 90 +6 +6 991.8 990.7 0.5
15 15.09 З 12-14
{15}
н/о н/о +12.4 +10.7 89 +8 +8 991.6 990.5
16 15.09 З 13 н/о н/о +12.2 +9.7 85 +8 +8 991.9 990.8
17 15.09 З 12-13
{15}
н/о н/о +12.0 +9.5 85 +8 +8 992.3 991.2
18 15.09 З 10-11
{13}
н/о н/о +11.8 +10.0 89 +8 +8 992.0 991.0 +10.6 +13.2
19 15.09 З 12 н/о н/о +12.1 +8.8 80 +8 +8 991.9 990.8
20 15.09 З 10 н/о н/о +12.0 +9.5 85 +8 +8 992.3 991.2
21 15.09 З 8-12
{12}
н/о н/о +10.4 +7.8 84 +7 +7 991.8 990.7 0.7
22 15.09 СЗ 8-12
{15}
н/о н/о +11.3 +7.6 78 +8 +8 991.7 990.6
23 15.09 З 12 н/о н/о +11.8 +9.2 84 +8 +8 991.4 990.3
00 16.09 З 12-14
{15}
н/о н/о +11.7 +9.6 87 +7 +7 991.2 990.2
01 16.09 З 11-13
{14}
н/о н/о +11.6 +9.7 88 +8 +8 991.0 989.9
02 16.09 З 10 н/о н/о +11.6 +10.0 90 +8 +8 990.7 989.6
03 16.09 З 11-13
{13}
н/о н/о +11.8 +9.4 85 +8 +8 990.6 989.6
04 16.09 З 11 н/о н/о +11.9 +9.7 86 +8 +8 990.6 989.6
05 16.09 З 8 н/о н/о +10.5 +7.9 84 +7 +7 991.1 990.0
06 16.09 З 11-12
{14}
н/о н/о +12.1 +9.8 86 +8 +8 991.4 990.3 +9.7 +12.4
07 16.09 З 12 н/о н/о +11.0 +9.5 90 +6 +6 992.2 991.1
08 16.09 СЗ 9-12
{12}
н/о н/о +11.2 +8.9 86 +7 +7 992.9 991.8
09 16.09 З 13-14
{14}
н/о н/о +12.8 +10.3 85 +9 +9 993.1 992.0
10 16.09 З 11-14
{14}
н/о н/о +14.1 +8.3 68 +11 +11 993.6 992.5
11 16.09 СЗ 12 н/о н/о +14.0 +9.2 73 +11 +11 994.0 993.0
12 16.09 СЗ 12-14
{18}
н/о н/о +14.2 +8.6 69 +11 +11 994.5 993.4
13 16.09 СЗ 13 н/о н/о +14.4 +8.4 67 +11 +11 994.9 993.9
14 16.09 СЗ 11 н/о н/о +11.9 +8.4 79 +8 +8 995.6 994.5
15 16.09 СЗ 11-15
{18}
н/о н/о +11.5 +7.4 76 +8 +8 996.1 995.0 0.5
16 16.09 СЗ 9 н/о н/о +11.9 +6.9 71 +9 +9 996.4 995.3
17 16.09 С 8 н/о н/о +10.8 +6.6 75 +7 +7 997.0 995.9
18 16.09 С 7-10
{11}
н/о н/о +10.2 +7.2 82 +7 +7 997.7 996.6 +9.9 +14.7
19 16.09 С 7-9
{10}
н/о н/о +9.6 +7.2 85 +6 +6 998.1 997.0

 

Местоположение метеостанции Остров Руссаро (Финляндия): широта 59.77 долгота 22.95 высота над уровнем моря 5 м.

В архиве по умолчанию представлена погода на Острове Руссаро за последнюю неделю. Архивные данные за месяц целиком и за предыдущие месяцы, начиная с января 2011 года, Вы можете получить, выбрав интересующий диапазон дат из раскрывающегося списка и нажав кнопку "Ввод!".


*Определитесь, кто Вы:
робот инопланетянин человек

Внимание! Время в таблицах - всемирное. Для получения местного времени необходимо прибавить поправку, которая равна 1 ч.

Смотрите также архив погоды в соседних городах и на ближайших метеорологических станциях:

Погода в Ханко (Финляндия) (5 км)
Погода в Твярминне (Финляндия) (19 км)
Погода на Юссаро (Финляндия) (36 км)
Погода на Вано (Финляндия) (44 км)
Погода в Кимиёнсаари (Финляндия) (46 км)
Погода на Острове Багаскар (Финляндия) (62 км)
Погода в Сало (Финляндия) (67 км)
Погода в Пиккио Йолтoнен (Финляндия) (72 км)
Погода в Пакри (Эстония) (78 км)
Погода на Острове Фагерхольм (Финляндия) (79 км)

Пояснения к столбцам:

Ветер - указаны скорость ветра в м/с - средняя за 10 мин, порывы в срок и между сроками (в фигурных скобках) и направление, откуда дует ветер: С - северный, СВ - северо-восточный, В - восточный, ЮВ - юго-восточный, Ю - южный, ЮЗ - юго-западный, З - западный, СЗ - северо-западный.
Видимость - горизонтальная дальность видимости в метрах или километрах. При видимости от 1 до 10 км при отсутствии осадков обычно наблюдается дымка, при ухудшении видимости до 1 км и менее - туман. В сухую погоду видимость может ухудшаться дымом, пылью или мглою.
Явления - указаны атмосферные явления, наблюдавшиеся в срок или в последний час перед сроком; фигурными скобками обозначены явления, наблюдавшиеся между сроками (за 1-3 часа до срока); квадратными скобками обозначены град или гололедные отложения с указанием их диаметра в мм.
Облачность - указаны через наклонную черту общая и нижняя облачность в баллах и высота нижней границы облаков в метрах; квадратными скобками обозначены формы облаков: Ci - перистые, Cs - перисто-слоистые, Cc - перисто-кучевые, Ac - высококучевые, As - высокослоистые, Sc - слоисто-кучевые, Ns - слоисто-дождевые, Cu - кучевые, Cb - кучево-дождевые. Подробнее классификацию облаков см. в Атласе облаков (PDF).
T - Температура воздуха - температура, измеренная на высоте 2 м над землей.
Td - Температура точки росы - температура, при понижении до которой содержащийся в воздухе водяной пар достигнет насыщения.
f - Относительная влажность воздуха - влажноcть воздуха, измеренная на высоте 2 м над землей.
Te - Эффективная температура - температура, которую ощущает одетый по сезону человек в тени. Характеристика душности погоды. При расчете учитывается влияние влажности воздуха и скорости ветра на теплоощущения человека.
Tes - Эффективная температура на солнце - температура, которую ощущает человек, с поправкой на солнечный нагрев. Характеристика знойности погоды. Зависит от высоты солнца над горизонтом, облачности и скорости ветра. Ночью, в пасмурную погоду, а также при ветре 12 м/с и более поправка равна нулю.
P - Атмосферное давление - приведенное к уровню моря атмосферное давление.
Po - Атмосферное давление - измеренное на уровне метеостанции атмосферное давление.
Tmin - Минимальная температура - минимум температуры воздуха на высоте 2 м над землей.
Tmax - Максимальная температура - максимум температуры воздуха на высоте 2 м над землей.
R - Количество осадков - Количество выпавших осадков за период времени, мм. При наведении курсора мыши на число - период времени, за который выпало указанное количество осадков.
R24 - Количество осадков - Количество выпавших осадков за 24 часа, мм.
S - Снежный покров - Высота снежного покрова, см. При наведении курсора мыши на число - состояние снежного покрова и степень покрытия местности в баллах.